EW3803 Weather Reports


time (UTC)temp
C
wind
direction
speed
KPH
gust
KPH
rain 1hr
cm
rain 24hr
cm
rain mn
cm
humidity
%
barometer
mb
20181023140048 22 234 3.2 11.3 0.00 0.00 0.00 71 1021.8
20181023134606 22 245 4.8 12.9 0.00 0.00 0.00 72 1021.9
20181023133033 22 236 6.4 11.3 0.00 0.00 0.00 70 1021.9
20181023131545 23 227 4.8 11.3 0.00 0.00 0.00 68 1021.9
20181023130043 24 215 4.8 9.7 0.00 0.00 0.00 69 1021.8
20181023124540 23 181 6.4 14.5 0.00 0.00 0.00 67 1021.9
20181023123026 23 230 4.8 11.3 0.00 0.00 0.00 68 1022.1
20181023121528 23 231 3.2 8.0 0.00 0.00 0.00 70 1022.1
20181023120013 23 244 6.4 14.5 0.00 0.00 0.00 70 1022.4
20181023114514 23 207 4.8 9.7 0.00 0.00 0.00 68 1022.4
20181023113010 22 209 3.2 9.7 0.00 0.00 0.00 69 1022.5
20181023111501 22 242 4.8 9.7 0.00 0.00 0.00 70 1022.5
20181023110258 22 205 6.4 12.9 0.00 0.00 0.00 70 1022.5
20181023104738 22 210 9.7 16.1 0.00 0.00 0.00 73 1022.5
20181023103257 22 197 9.7 16.1 0.00 0.00 0.00 74 1022.5
20181023101802 22 175 4.8 12.9 0.00 0.00 0.00 72 1022.4
20181023100109 22 128 6.4 12.9 0.00 0.00 0.00 72 1022.4
20181023094744 21 167 4.8 12.9 0.00 0.00 0.00 72 1022.4
20181023093135 21 160 6.4 12.9 0.00 0.00 0.00 72 1022.3
20181023091619 21 190 3.2 14.5 0.00 0.00 0.00 74 1022.3
20181023090151 20 164 3.2 16.1 0.00 0.00 0.00 77 1022.2
20181023084654 20 149 8.0 16.1 0.00 0.00 0.00 78 1022.1
20181023083124 19 163 6.4 12.9 0.00 0.00 0.00 80 1021.9
20181023081600 18 165 6.4 11.3 0.00 0.00 0.00 82 1021.7
20181023080037 18 164 4.8 12.9 0.00 0.00 0.00 85 1021.6
20181023074536 18 144 9.7 14.5 0.00 0.00 0.00 85 1021.4
20181023073102 17 150 11.3 16.1 0.00 0.00 0.00 86 1021.1
20181023071605 17 150 9.7 14.5 0.00 0.00 0.00 87 1020.9
20181023070046 17 151 9.7 14.5 0.00 0.00 0.00 88 1020.7
20181023064543 17 162 6.4 14.5 0.00 0.00 0.00 88 1020.6
20181023063042 17 169 4.8 9.7 0.00 0.00 0.00 88 1020.4
20181023061517 17 166 4.8 8.0 0.00 0.00 0.00 88 1020.4
20181023060027 17 151 4.8 11.3 0.00 0.00 0.00 88 1020.3
20181023054530 17 151 6.4 11.3 0.00 0.00 0.00 87 1020.1
20181023053043 17 170 6.4 12.9 0.00 0.00 0.00 87 1020.1
20181023051547 17 164 4.8 9.7 0.00 0.00 0.00 87 1020.0
20181023050011 17 169 6.4 9.7 0.00 0.00 0.00 86 1020.0
20181023044516 17 173 4.8 9.7 0.00 0.00 0.00 84 1019.9
20181023043010 17 178 3.2 8.0 0.00 0.00 0.00 82 1019.7
20181023041519 18 184 4.8 12.9 0.00 0.00 0.00 79 1019.7
20181023040015 18 108 3.2 9.7 0.00 0.00 0.00 78 1019.5
20181023034518 18 104 4.8 11.3 0.00 0.00 0.00 77 1019.4
20181023033005 18 113 4.8 11.3 0.00 0.00 0.00 77 1019.3
20181023031510 18 101 8.0 14.5 0.00 0.00 0.00 78 1019.1
20181023030004 18 95 8.0 16.1 0.00 0.00 0.00 78 1019.2
20181023024507 18 101 8.0 14.5 0.00 0.00 0.00 79 1019.1
20181023023131 18 106 4.8 9.7 0.00 0.00 0.00 80 1019.1
20181023021627 17 103 6.4 14.5 0.00 0.00 0.00 82 1019.2
20181023020140 17 94 8.0 12.9 0.00 0.00 0.00 86 1019.4
20181023014656 16 79 1.6 4.8 0.00 0.00 0.00 87 1019.5
20181023013117 17 351 3.2 6.4 0.00 0.00 0.00 86 1019.6
20181023011636 17 152 6.4 12.9 0.00 0.00 0.00 87 1019.5
20181023010254 17 153 11.3 14.5 0.00 0.00 0.00 89 1019.3
20181023004614 17 153 9.7 14.5 0.00 0.00 0.00 90 1019.5
20181023003120 17 159 4.8 11.3 0.00 0.00 0.00 90 1019.5
20181023001627 17 161 6.4 12.9 0.00 0.00 0.00 90 1019.6
20181023000111 17 169 6.4 9.7 0.00 0.00 0.00 89 1019.7
20181022234546 17 178 3.2 9.7 0.00 0.00 0.00 88 1019.8
20181022233124 17 175 3.2 9.7 0.00 0.00 0.00 87 1019.9
20181022231548 17 193 1.6 8.0 0.00 0.00 0.00 85 1020.0
20181022230050 18 27 0.0 3.2 0.00 0.00 0.00 83 1020.1
20181022224607 18 27 0.0 3.2 0.00 0.00 0.00 82 1020.3
20181022223047 18 27 0.0 3.2 0.00 0.00 0.00 82 1020.3
20181022221545 18 27 1.6 4.8 0.00 0.00 0.00 81 1020.2
20181022220041 18 27 3.2 4.8 0.00 0.00 0.00 81 1020.1
20181022214540 18 27 1.6 6.4 0.00 0.00 0.00 80 1020.1
20181022213126 18 27 3.2 6.4 0.00 0.00 0.00 80 1020.1
20181022211612 18 11 3.2 6.4 0.00 0.00 0.00 80 1020.0
20181022210042 18 42 3.2 4.8 0.00 0.00 0.00 80 1020.0
20181022204530 18 42 3.2 6.4 0.00 0.00 0.00 80 1019.8
20181022203041 18 51 4.8 8.0 0.00 0.00 0.00 80 1019.6
20181022201536 19 48 4.8 6.4 0.00 0.00 0.00 81 1019.5
20181022200029 19 54 3.2 6.4 0.00 0.00 0.00 81 1019.5
20181022194558 18 27 4.8 8.0 0.00 0.00 0.00 82 1019.5
20181022193044 18 23 3.2 6.4 0.00 0.00 0.00 82 1019.6
20181022191552 18 23 4.8 6.4 0.00 0.00 0.00 83 1019.6
20181022190043 18 23 3.2 6.4 0.00 0.00 0.00 82 1019.6
20181022184613 18 24 4.8 6.4 0.00 0.00 0.00 82 1019.5
20181022183036 19 40 4.8 8.0 0.00 0.00 0.00 82 1019.6
20181022181607 18 47 4.8 8.0 0.00 0.00 0.00 83 1019.3
20181022180035 18 360 3.2 6.4 0.00 0.00 0.00 83 1019.0
20181022174529 19 13 3.2 6.4 0.00 0.00 0.00 82 1018.9
20181022173041 20 360 4.8 9.7 0.00 0.00 0.00 80 1018.8
20181022171534 20 350 6.4 12.9 0.00 0.00 0.00 78 1018.8
20181022170018 20 9 6.4 9.7 0.00 0.00 0.00 76 1018.7
20181022164523 21 350 3.2 9.7 0.00 0.00 0.00 75 1018.7
20181022163029 21 340 6.4 9.7 0.00 0.00 0.00 74 1018.7
20181022161531 21 318 6.4 16.1 0.00 0.00 0.00 73 1018.8
20181022160027 22 321 14.5 20.9 0.00 0.00 0.00 71 1018.7
20181022154557 22 9 12.9 20.9 0.00 0.00 0.00 70 1018.7
20181022153047 22 322 11.3 20.9 0.00 0.00 0.00 71 1018.8
20181022151522 22 345 12.9 22.5 0.00 0.00 0.00 70 1018.9
20181022150017 22 9 16.1 20.9 0.00 0.00 0.00 71 1018.9
20181022143019 22 328 12.9 20.9 0.00 0.00 0.00 74 1019.0
20181022141541 22 335 11.3 17.7 0.00 0.00 0.00 72 1019.0